Weather History for Mosby, MO

Change the Weather History Date:

Sunday, May 19, 2013

  Actual Average (KMKC) Record (KMKC)
Temperature  
Mean Temperature 72 °F -  
Max Temperature 82 °F 74 °F 96 °F (1998)
Min Temperature 62 °F 55 °F 44 °F (2002)
Cooling Degree Days 7    
Growing Degree Days 22 (Base 50)    
Moisture  
Dew Point 64 °F    
Average Humidity 79    
Maximum Humidity 100    
Minimum Humidity 57    
Precipitation  
Precipitation 0.00 in - - ()
Sea Level Pressure  
Sea Level Pressure 29.71 in    
Wind  
Wind Speed 7 mph (SSE)    
Max Wind Speed 20 mph    
Max Gust Speed 48 mph    
Visibility 10 miles    
Events Rain , Thunderstorm    
Averages and records for this station are not official NWS values.
T = Trace of Precipitation, MM = Missing Value Source: NWS Daily Summary

Daily Weather History Graph

Daily Weather History Graph

Search for Another Location

Airport:

Trip Planner

Search our weather history database for the weather conditions in past years. The results will help you decide how hot, cold, wet, or windy it might be!

Date:

Astronomy

May. 19, 2013 Rise Set
Actual Time 6:00 AM CDT 8:27 PM CDT
Civil Twilight 5:29 AM CDT 8:58 PM CDT
Nautical Twilight 4:51 AM CDT 9:36 PM CDT
Astronomical Twilight 4:09 AM CDT 10:19 PM CDT
Moon 2:34 PM CDT (5/19) 2:21 AM CDT (5/19)
Length of Visible Light 15h 29m
Length of Day
14h 27m
Waxing Gibbous, 65% of the Moon is Illuminated
May 19
Waxing Gibbous
May 24
Full
May 31
Last Quarter
Jun 8
New
Jun 16
First Quarter

Hourly Weather History & Observations

Time (CDT) Temp. Heat Index Dew Point Humidity Pressure Visibility Wind Dir Wind Speed Gust Speed Precip Events Conditions
12:35 AM 77.0 °F - 69.8 °F 78% 29.81 in 10.0 mi SSW 4.6 mph - N/A   Mostly Cloudy
12:55 AM 77.0 °F - 69.8 °F 78% 29.80 in 10.0 mi SSE 5.8 mph - N/A   Mostly Cloudy
1:15 AM 77.0 °F - 69.8 °F 78% 29.80 in 10.0 mi South 5.8 mph - N/A   Scattered Clouds
1:35 AM 77.0 °F - 69.8 °F 78% 29.80 in 10.0 mi SSW 5.8 mph - N/A   Mostly Cloudy
1:55 AM 71.6 °F - 57.2 °F 60% 29.84 in 10.0 mi West 9.2 mph 24.2 mph N/A Rain Light Rain
2:15 AM 66.2 °F - 60.8 °F 83% 29.84 in 7.0 mi NW 9.2 mph - N/A Rain , Thunderstorm Rain
2:35 AM 64.4 °F - 60.8 °F 88% 29.82 in 10.0 mi NNW 5.8 mph - N/A Rain , Thunderstorm Light Thunderstorms and Rain
2:55 AM 64.4 °F - 60.8 °F 88% 29.81 in 10.0 mi Calm Calm - N/A   Clear
3:35 AM 62.6 °F - 62.6 °F 100% 29.80 in 10.0 mi Calm Calm - N/A   Clear
3:55 AM 62.6 °F - 62.6 °F 100% 29.80 in 10.0 mi Calm Calm - N/A Thunderstorm Scattered Clouds
4:15 AM 62.6 °F - 62.6 °F 100% 29.83 in 10.0 mi SSE 4.6 mph - N/A Rain , Thunderstorm Thunderstorms and Rain
4:35 AM 62.6 °F - 62.6 °F 100% 29.81 in 3.0 mi East 3.5 mph - N/A Rain , Thunderstorm Thunderstorms and Rain
4:55 AM 62.6 °F - 62.6 °F 100% 29.80 in 10.0 mi East 9.2 mph - N/A Thunderstorm Scattered Clouds
5:15 AM 62.6 °F - 62.6 °F 100% 29.76 in 10.0 mi East 5.8 mph - N/A   Unknown
5:35 AM 62.6 °F - 62.6 °F 100% 29.74 in 10.0 mi East 3.5 mph - N/A   Scattered Clouds
5:55 AM 62.6 °F - 62.6 °F 100% 29.71 in 10.0 mi Calm Calm - N/A   Clear
6:15 AM 62.6 °F - 62.6 °F 100% 29.73 in 10.0 mi South 3.5 mph - N/A   Clear
6:35 AM 62.6 °F - 62.6 °F 100% 29.75 in 10.0 mi SE 3.5 mph - N/A   Clear
6:55 AM 62.6 °F - 62.6 °F 100% 29.77 in 10.0 mi SE 6.9 mph - N/A   Clear
7:15 AM 64.4 °F - 62.6 °F 94% 29.81 in 10.0 mi South 4.6 mph - N/A   Scattered Clouds
7:35 AM 64.4 °F - 62.6 °F 94% 29.82 in 10.0 mi South 6.9 mph - N/A   Mostly Cloudy
7:55 AM 64.4 °F - 62.6 °F 94% 29.85 in 10.0 mi South 15.0 mph 21.9 mph N/A Rain Rain
8:15 AM 66.2 °F - 62.6 °F 88% 29.83 in 10.0 mi SSE 6.9 mph - N/A Rain Light Rain
8:35 AM 64.4 °F - 62.6 °F 94% 29.81 in 7.0 mi SE 6.9 mph - N/A Rain Rain
8:55 AM 64.4 °F - 62.6 °F 94% 29.70 in 10.0 mi East 13.8 mph - N/A Rain Light Rain
9:15 AM 64.4 °F - 62.6 °F 94% 29.70 in 10.0 mi ESE 8.1 mph - N/A   Clear
9:35 AM 66.2 °F - 62.6 °F 88% 29.72 in 10.0 mi ESE 9.2 mph - N/A   Clear
9:55 AM 68.0 °F - 64.4 °F 88% 29.72 in 10.0 mi SE 9.2 mph - N/A   Clear
10:15 AM 68.0 °F - 64.4 °F 88% 29.72 in 10.0 mi SE 11.5 mph - N/A   Clear
10:35 AM 71.6 °F - 64.4 °F 78% 29.72 in 10.0 mi SE 9.2 mph - N/A   Clear
10:55 AM 73.4 °F - 62.6 °F 69% 29.71 in 10.0 mi SE 13.8 mph 20.7 mph N/A   Clear
11:15 AM 77.0 °F - 62.6 °F 61% 29.70 in 10.0 mi SSE 13.8 mph 28.8 mph N/A   Clear
11:35 AM 77.0 °F - 64.4 °F 65% 29.70 in 10.0 mi South 18.4 mph 25.3 mph N/A   Clear
11:55 AM 78.8 °F - 64.4 °F 61% 29.70 in 10.0 mi SSE 16.1 mph 29.9 mph N/A   Clear
12:15 PM 78.8 °F - 62.6 °F 57% 29.70 in 10.0 mi SSE 19.6 mph 29.9 mph N/A   Clear
12:35 PM 78.8 °F - 62.6 °F 57% 29.69 in 10.0 mi SSE 18.4 mph 25.3 mph N/A   Clear
12:55 PM 78.8 °F - 64.4 °F 61% 29.68 in 10.0 mi SSE 17.3 mph 27.6 mph N/A   Clear
1:15 PM 78.8 °F - 64.4 °F 61% 29.69 in 10.0 mi SSE 9.2 mph 26.5 mph N/A   Scattered Clouds
1:35 PM 78.8 °F - 64.4 °F 61% 29.68 in 10.0 mi SSE 16.1 mph 27.6 mph N/A   Scattered Clouds
1:55 PM 80.6 °F 82.3 °F 64.4 °F 58% 29.68 in 10.0 mi South 16.1 mph 21.9 mph N/A   Scattered Clouds
2:15 PM 80.6 °F 82.7 °F 66.2 °F 61% 29.67 in 10.0 mi South 12.7 mph 20.7 mph N/A   Mostly Cloudy
2:35 PM 80.6 °F 82.3 °F 64.4 °F 58% 29.68 in 10.0 mi South 15.0 mph 24.2 mph N/A   Mostly Cloudy
2:55 PM 80.6 °F 82.7 °F 66.2 °F 61% 29.67 in 10.0 mi SSE 9.2 mph - N/A   Overcast
3:15 PM 80.6 °F 82.7 °F 66.2 °F 61% 29.67 in 10.0 mi South 8.1 mph - N/A   Overcast
3:35 PM 80.6 °F 83.2 °F 68.0 °F 65% 29.66 in 10.0 mi SSE 6.9 mph - N/A   Overcast
3:55 PM 80.6 °F 83.2 °F 68.0 °F 65% 29.65 in 10.0 mi South 4.6 mph - N/A   Overcast
4:15 PM 80.6 °F 83.2 °F 68.0 °F 65% 29.62 in 10.0 mi SE 4.6 mph - N/A   Overcast
4:35 PM 80.6 °F 83.9 °F 69.8 °F 70% 29.62 in 10.0 mi SSE 6.9 mph - N/A   Mostly Cloudy
4:55 PM 80.6 °F 83.9 °F 69.8 °F 70% 29.60 in 10.0 mi ESE 9.2 mph - N/A   Scattered Clouds
5:15 PM 82.4 °F 86.3 °F 69.8 °F 66% 29.59 in 10.0 mi SE 8.1 mph - N/A   Scattered Clouds
5:35 PM 82.4 °F 86.3 °F 69.8 °F 66% 29.59 in 10.0 mi SSE 6.9 mph - N/A   Clear
5:55 PM 82.4 °F 85.4 °F 68.0 °F 62% 29.57 in 10.0 mi ESE 3.5 mph - N/A   Clear
6:15 PM 82.4 °F 85.4 °F 68.0 °F 62% 29.58 in 10.0 mi South 10.4 mph - N/A   Scattered Clouds
6:35 PM 82.4 °F 84.6 °F 66.2 °F 58% 29.58 in 10.0 mi South 8.1 mph - N/A Rain Light Rain
6:55 PM 80.6 °F 83.2 °F 68.0 °F 65% 29.59 in 10.0 mi SW 8.1 mph - N/A Rain Light Rain
7:15 PM 80.6 °F 83.2 °F 68.0 °F 65% 29.59 in 10.0 mi SSW 8.1 mph - N/A Thunderstorm Overcast
7:35 PM 80.6 °F 83.2 °F 68.0 °F 65% 29.58 in 10.0 mi SSW 8.1 mph - N/A Thunderstorm Thunderstorm
7:55 PM 78.8 °F - 68.0 °F 69% 29.57 in 10.0 mi South 10.4 mph 17.3 mph N/A Thunderstorm Thunderstorm
8:15 PM 62.6 °F - 62.6 °F 100% 29.64 in 1.0 mi WSW 18.4 mph 48.3 mph N/A Rain , Thunderstorm Heavy Thunderstorms and Rain
8:35 PM 64.4 °F - 62.6 °F 94% 29.67 in 7.0 mi South 11.5 mph - N/A Rain , Thunderstorm Light Thunderstorms and Rain
8:55 PM 62.6 °F - 62.6 °F 100% 29.69 in 10.0 mi SSW 13.8 mph 18.4 mph N/A Rain , Thunderstorm Thunderstorms and Rain
9:35 PM 66.2 °F - 59.0 °F 78% 29.60 in 10.0 mi South 9.2 mph - N/A Thunderstorm Scattered Clouds
9:55 PM 64.4 °F - 59.0 °F 83% 29.62 in 10.0 mi South 9.2 mph - N/A   Clear
10:15 PM 66.2 °F - 59.0 °F 78% 29.65 in 10.0 mi SSE 5.8 mph - N/A   Clear
10:35 PM 64.4 °F - 59.0 °F 83% 29.62 in 10.0 mi South 6.9 mph - N/A   Clear
10:55 PM 64.4 °F - 59.0 °F 83% 29.66 in 1.8 mi South 9.2 mph - N/A Rain , Thunderstorm Light Thunderstorms and Rain
11:15 PM 64.4 °F - 60.8 °F 88% 29.70 in 10.0 mi SSE 6.9 mph - N/A Rain Light Rain
11:35 PM 64.4 °F - 60.8 °F 88% 29.69 in 10.0 mi ESE 5.8 mph - N/A Rain , Thunderstorm Light Thunderstorms and Rain
11:55 PM 64.4 °F - 62.6 °F 94% 29.70 in 10.0 mi SSE 4.6 mph - N/A Thunderstorm Scattered Clouds